Time,TemperatureF,DewpointF,PressureIn,WindDirection,WindDirectionDegrees,WindSpeedMPH,WindSpeedGustMPH,Humidity,HourlyPrecipIn,Conditions,Clouds,dailyrainin,SoftwareType,DateUTC
2013-07-09 00:00:00,58.7,50.8,30.17,NNW,346,0.0,0.0,75,0.00,,,0.00,Wunderground v.1.15,2013-07-09 07:00:00,
2013-07-09 00:05:00,58.7,50.8,30.17,NNW,346,0.0,0.0,75,0.00,,,0.00,Wunderground v.1.15,2013-07-09 07:05:00,
2013-07-09 00:15:00,58.6,50.7,30.17,NNW,346,0.0,0.0,75,0.00,,,0.00,Wunderground v.1.15,2013-07-09 07:15:00,
2013-07-09 00:25:00,58.4,50.5,30.17,NNW,346,0.0,0.0,75,0.00,,,0.00,Wunderground v.1.15,2013-07-09 07:25:00,
2013-07-09 00:30:00,58.3,50.4,30.17,NNW,346,0.0,0.0,75,0.00,,,0.00,Wunderground v.1.15,2013-07-09 07:30:00,
2013-07-09 00:40:00,58.0,50.1,30.17,NNW,346,0.0,0.0,75,0.00,,,0.00,Wunderground v.1.15,2013-07-09 07:40:00,
2013-07-09 00:55:00,58.0,49.8,30.17,NNW,346,0.0,0.0,74,0.00,,,0.00,Wunderground v.1.15,2013-07-09 07:55:00,
2013-07-09 01:00:00,58.0,49.4,30.17,NNW,346,0.0,0.0,73,0.00,,,0.00,Wunderground v.1.15,2013-07-09 08:00:00,
2013-07-09 01:05:00,57.8,49.6,30.17,NNW,346,0.0,0.0,74,0.00,,,0.00,Wunderground v.1.15,2013-07-09 08:05:00,
2013-07-09 01:15:00,57.3,49.1,30.17,NNW,346,0.0,0.0,74,0.00,,,0.00,Wunderground v.1.15,2013-07-09 08:15:00,
2013-07-09 01:25:00,57.0,49.2,30.17,NNW,346,0.0,0.0,75,0.00,,,0.00,Wunderground v.1.15,2013-07-09 08:25:00,
2013-07-09 01:30:00,57.0,49.5,30.17,NNW,346,0.0,0.0,76,0.00,,,0.00,Wunderground v.1.15,2013-07-09 08:30:00,
2013-07-09 01:40:00,56.7,49.2,30.17,NNW,344,0.0,0.0,76,0.00,,,0.00,Wunderground v.1.15,2013-07-09 08:40:00,
2013-07-09 01:50:00,56.9,50.1,30.17,NNW,344,0.0,0.0,78,0.00,,,0.00,Wunderground v.1.15,2013-07-09 08:50:00,
2013-07-09 02:00:00,57.0,50.2,30.17,NNW,346,0.0,0.0,78,0.00,,,0.00,Wunderground v.1.15,2013-07-09 09:00:00,
2013-07-09 02:10:00,57.0,49.9,30.17,NNW,346,0.0,0.0,77,0.00,,,0.00,Wunderground v.1.15,2013-07-09 09:10:00,
2013-07-09 02:15:00,56.9,49.8,30.17,NNW,346,0.0,0.0,77,0.00,,,0.00,Wunderground v.1.15,2013-07-09 09:15:00,
2013-07-09 02:25:00,56.9,49.8,30.17,NNW,346,0.0,0.0,77,0.00,,,0.00,Wunderground v.1.15,2013-07-09 09:25:00,
2013-07-09 02:35:00,56.5,49.4,30.17,NNW,344,0.0,0.0,77,0.00,,,0.00,Wunderground v.1.15,2013-07-09 09:35:00,
2013-07-09 02:45:00,55.7,49.3,30.17,NNW,344,0.0,0.0,79,0.00,,,0.00,Wunderground v.1.15,2013-07-09 09:45:00,
2013-07-09 02:55:00,55.3,50.9,30.17,NNW,344,0.0,0.0,85,0.00,,,0.00,Wunderground v.1.15,2013-07-09 09:55:00,
2013-07-09 03:00:00,55.1,51.6,30.17,NNW,344,0.0,0.0,88,0.00,,,0.00,Wunderground v.1.15,2013-07-09 10:00:00,
2013-07-09 03:05:00,55.1,51.6,30.17,NNW,344,0.0,0.0,88,0.00,,,0.00,Wunderground v.1.15,2013-07-09 10:05:00,
2013-07-09 03:15:00,55.0,51.5,30.17,NNW,344,0.0,0.0,88,0.00,,,0.00,Wunderground v.1.15,2013-07-09 10:15:00,
2013-07-09 03:25:00,55.0,50.9,30.17,NNW,344,0.0,0.0,86,0.00,,,0.00,Wunderground v.1.15,2013-07-09 10:25:00,
2013-07-09 03:35:00,54.8,51.3,30.17,NNW,344,0.0,0.0,88,0.00,,,0.00,Wunderground v.1.15,2013-07-09 10:35:00,
2013-07-09 03:45:00,54.7,51.2,30.17,NNW,344,0.0,0.0,88,0.00,,,0.00,Wunderground v.1.15,2013-07-09 10:45:00,
2013-07-09 03:55:00,54.4,50.9,30.17,NNW,346,0.0,0.0,88,0.00,,,0.00,Wunderground v.1.15,2013-07-09 10:55:00,
2013-07-09 04:00:00,54.2,50.7,30.17,NNW,346,0.0,0.0,88,0.00,,,0.00,Wunderground v.1.15,2013-07-09 11:00:00,
2013-07-09 04:05:00,54.1,51.2,30.17,NNW,344,0.0,0.0,90,0.00,,,0.00,Wunderground v.1.15,2013-07-09 11:05:00,
2013-07-09 04:15:00,53.8,51.5,30.17,NNW,344,0.0,0.0,92,0.00,,,0.00,Wunderground v.1.15,2013-07-09 11:15:00,
2013-07-09 04:25:00,53.6,51.3,30.17,NNW,344,0.0,0.0,92,0.00,,,0.00,Wunderground v.1.15,2013-07-09 11:25:00,
2013-07-09 04:35:00,53.5,51.5,30.17,NNW,344,0.0,0.0,93,0.00,,,0.00,Wunderground v.1.15,2013-07-09 11:35:00,
2013-07-09 04:45:00,53.3,51.3,30.17,NNW,344,0.0,0.0,93,0.00,,,0.00,Wunderground v.1.15,2013-07-09 11:45:00,
2013-07-09 04:55:00,53.3,51.6,30.17,NNW,344,0.0,0.0,94,0.00,,,0.00,Wunderground v.1.15,2013-07-09 11:55:00,
2013-07-09 05:00:00,53.3,51.6,30.17,NNW,344,0.0,0.0,94,0.00,,,0.00,Wunderground v.1.15,2013-07-09 12:00:00,
2013-07-09 05:05:00,53.3,51.6,30.17,NNW,344,0.0,0.0,94,0.00,,,0.00,Wunderground v.1.15,2013-07-09 12:05:00,
2013-07-09 05:15:00,53.3,51.6,30.17,NNW,344,0.0,0.0,94,0.00,,,0.00,Wunderground v.1.15,2013-07-09 12:15:00,
2013-07-09 05:25:00,53.3,51.9,30.17,NNW,344,0.0,0.0,95,0.00,,,0.00,Wunderground v.1.15,2013-07-09 12:25:00,
2013-07-09 05:35:00,53.5,52.1,30.18,NNW,333,1.0,1.0,95,0.00,,,0.00,Wunderground v.1.15,2013-07-09 12:35:00,
2013-07-09 05:45:00,53.6,52.5,30.17,NNW,330,1.0,6.0,96,0.00,,,0.00,Wunderground v.1.15,2013-07-09 12:45:00,
2013-07-09 05:55:00,53.6,52.5,30.17,NNW,344,1.0,1.0,96,0.00,,,0.00,Wunderground v.1.15,2013-07-09 12:55:00,
2013-07-09 06:00:00,53.6,52.5,30.18,WNW,287,1.0,1.0,96,0.00,,,0.00,Wunderground v.1.15,2013-07-09 13:00:00,
2013-07-09 06:05:00,53.5,52.4,30.18,NW,318,1.0,1.0,96,0.00,,,0.00,Wunderground v.1.15,2013-07-09 13:05:00,
2013-07-09 06:15:00,53.6,52.5,30.18,NNW,329,2.0,2.0,96,0.00,,,0.00,Wunderground v.1.15,2013-07-09 13:15:00,
2013-07-09 06:20:00,53.5,52.4,30.18,NNW,328,2.0,2.0,96,0.00,,,0.00,Wunderground v.1.15,2013-07-09 13:20:00,
2013-07-09 06:30:00,53.5,52.4,30.18,NNW,328,0.0,3.0,96,0.00,,,0.00,Wunderground v.1.15,2013-07-09 13:30:00,
2013-07-09 06:40:00,53.5,52.4,30.18,NNW,340,1.0,1.0,96,0.00,,,0.00,Wunderground v.1.15,2013-07-09 13:40:00,
2013-07-09 06:50:00,53.5,52.4,30.18,WNW,289,0.0,0.0,96,0.00,,,0.00,Wunderground v.1.15,2013-07-09 13:50:00,
2013-07-09 06:55:00,53.6,52.5,30.18,NNW,328,0.0,0.0,96,0.00,,,0.00,Wunderground v.1.15,2013-07-09 13:55:00,
2013-07-09 07:00:00,53.6,52.5,30.18,NNW,328,0.0,0.0,96,0.00,,,0.00,Wunderground v.1.15,2013-07-09 14:00:00,
2013-07-09 07:05:00,53.6,52.5,30.18,WNW,285,0.0,0.0,96,0.00,,,0.00,Wunderground v.1.15,2013-07-09 14:05:00,
2013-07-09 07:15:00,53.8,52.7,30.18,North,4,0.0,0.0,96,0.00,,,0.00,Wunderground v.1.15,2013-07-09 14:15:00,
2013-07-09 07:25:00,53.9,52.8,30.18,North,3,0.0,0.0,96,0.00,,,0.00,Wunderground v.1.15,2013-07-09 14:25:00,
2013-07-09 07:35:00,54.1,53.0,30.18,NNW,333,0.0,0.0,96,0.00,,,0.00,Wunderground v.1.15,2013-07-09 14:35:00,
2013-07-09 07:45:00,54.1,53.0,30.18,NW,308,0.0,0.0,96,0.00,,,0.00,Wunderground v.1.15,2013-07-09 14:45:00,
2013-07-09 07:55:00,53.9,52.8,30.18,North,356,1.0,4.0,96,0.00,,,0.00,Wunderground v.1.15,2013-07-09 14:55:00,
2013-07-09 08:00:00,54.1,53.0,30.19,West,275,1.0,1.0,96,0.00,,,0.00,Wunderground v.1.15,2013-07-09 15:00:00,
2013-07-09 08:05:00,53.9,52.8,30.19,NE,48,1.0,1.0,96,0.00,,,0.00,Wunderground v.1.15,2013-07-09 15:05:00,
2013-07-09 08:15:00,54.5,53.4,30.19,North,350,0.0,1.0,96,0.00,,,0.00,Wunderground v.1.15,2013-07-09 15:15:00,
2013-07-09 08:25:00,54.7,53.6,30.19,NNW,333,1.0,4.0,96,0.00,,,0.00,Wunderground v.1.15,2013-07-09 15:25:00,
2013-07-09 08:35:00,55.3,54.2,30.19,NW,315,0.0,1.0,96,0.00,,,0.00,Wunderground v.1.15,2013-07-09 15:35:00,
2013-07-09 08:40:00,55.6,54.2,30.19,WNW,288,0.0,0.0,95,0.00,,,0.00,Wunderground v.1.15,2013-07-09 15:40:00,
2013-07-09 08:50:00,56.3,54.6,30.20,NW,323,0.0,0.0,94,0.00,,,0.00,Wunderground v.1.15,2013-07-09 15:50:00,
2013-07-09 09:00:00,57.8,52.0,30.19,NW,325,0.0,0.0,81,0.00,,,0.00,Wunderground v.1.15,2013-07-09 16:00:00,
2013-07-09 09:05:00,58.4,50.5,30.19,NW,325,0.0,0.0,75,0.00,,,0.00,Wunderground v.1.15,2013-07-09 16:05:00,
2013-07-09 09:15:00,58.4,49.4,30.19,WNW,288,0.0,0.0,72,0.00,,,0.00,Wunderground v.1.15,2013-07-09 16:15:00,
2013-07-09 09:25:00,58.9,49.9,30.19,West,278,1.0,3.0,72,0.00,,,0.00,Wunderground v.1.15,2013-07-09 16:25:00,
2013-07-09 09:35:00,59.5,50.1,30.19,WNW,285,1.0,3.0,71,0.00,,,0.00,Wunderground v.1.15,2013-07-09 16:35:00,
2013-07-09 09:40:00,60.1,50.3,30.19,NW,306,0.0,0.0,70,0.00,,,0.00,Wunderground v.1.15,2013-07-09 16:40:00,
2013-07-09 09:50:00,60.4,50.2,30.19,WNW,292,1.0,1.0,69,0.00,,,0.00,Wunderground v.1.15,2013-07-09 16:50:00,
2013-07-09 10:00:00,61.3,51.0,30.18,West,274,1.0,3.0,69,0.00,,,0.00,Wunderground v.1.15,2013-07-09 17:00:00,
2013-07-09 10:05:00,61.3,50.6,30.18,West,280,2.0,3.0,68,0.00,,,0.00,Wunderground v.1.15,2013-07-09 17:05:00,
2013-07-09 10:15:00,61.5,50.4,30.18,West,272,2.0,2.0,67,0.00,,,0.00,Wunderground v.1.15,2013-07-09 17:15:00,
2013-07-09 10:25:00,61.8,50.3,30.18,West,267,2.0,7.0,66,0.00,,,0.00,Wunderground v.1.15,2013-07-09 17:25:00,
2013-07-09 10:30:00,62.4,50.9,30.18,WSW,254,2.0,5.0,66,0.00,,,0.00,Wunderground v.1.15,2013-07-09 17:30:00,
2013-07-09 10:40:00,62.4,50.9,30.18,West,281,2.0,2.0,66,0.00,,,0.00,Wunderground v.1.15,2013-07-09 17:40:00,
2013-07-09 10:50:00,63.4,51.0,30.18,West,268,1.0,1.0,64,0.00,,,0.00,Wunderground v.1.15,2013-07-09 17:50:00,
2013-07-09 11:00:00,64.7,51.4,30.18,West,278,0.0,0.0,62,0.00,,,0.00,Wunderground v.1.15,2013-07-09 18:00:00,
2013-07-09 11:05:00,65.6,50.4,30.18,SW,222,0.0,0.0,58,0.00,,,0.00,Wunderground v.1.15,2013-07-09 18:05:00,
2013-07-09 11:15:00,66.3,52.0,30.18,NNW,342,1.0,6.0,60,0.00,,,0.00,Wunderground v.1.15,2013-07-09 18:15:00,
2013-07-09 11:25:00,66.0,51.3,30.18,WNW,284,1.0,3.0,59,0.00,,,0.00,Wunderground v.1.15,2013-07-09 18:25:00,
2013-07-09 11:35:00,66.6,51.8,30.17,West,275,2.0,2.0,59,0.00,,,0.00,Wunderground v.1.15,2013-07-09 18:35:00,
2013-07-09 11:45:00,67.4,51.2,30.17,WSW,243,1.0,1.0,56,0.00,,,0.00,Wunderground v.1.15,2013-07-09 18:45:00,
2013-07-09 11:55:00,69.1,52.2,30.17,West,261,1.0,6.0,55,0.00,,,0.00,Wunderground v.1.15,2013-07-09 18:55:00,
2013-07-09 12:00:00,69.3,52.4,30.17,West,260,1.0,1.0,55,0.00,,,0.00,Wunderground v.1.15,2013-07-09 19:00:00,
2013-07-09 12:05:00,69.9,52.5,30.17,NNW,339,1.0,7.0,54,0.00,,,0.00,Wunderground v.1.15,2013-07-09 19:05:00,
2013-07-09 12:15:00,70.8,52.8,30.16,West,267,2.0,2.0,53,0.00,,,0.00,Wunderground v.1.15,2013-07-09 19:15:00,
2013-07-09 12:20:00,70.9,52.4,30.16,West,277,1.0,1.0,52,0.00,,,0.00,Wunderground v.1.15,2013-07-09 19:20:00,
2013-07-09 12:30:00,71.1,53.1,30.16,West,261,1.0,1.0,53,0.00,,,0.00,Wunderground v.1.15,2013-07-09 19:30:00,
2013-07-09 12:40:00,72.3,52.6,30.16,WSW,240,1.0,1.0,50,0.00,,,0.00,Wunderground v.1.15,2013-07-09 19:40:00,
2013-07-09 12:50:00,72.1,51.9,30.15,WNW,288,2.0,2.0,49,0.00,,,0.00,Wunderground v.1.15,2013-07-09 19:50:00,
2013-07-09 13:00:00,73.0,51.0,30.15,NNW,343,1.0,1.0,46,0.00,,,0.00,Wunderground v.1.15,2013-07-09 20:00:00,
2013-07-09 13:05:00,73.2,50.0,30.15,WSW,258,1.0,7.0,44,0.00,,,0.00,Wunderground v.1.15,2013-07-09 20:05:00,
2013-07-09 13:15:00,73.2,50.6,30.15,NW,315,2.0,6.0,45,0.00,,,0.00,Wunderground v.1.15,2013-07-09 20:15:00,
2013-07-09 13:25:00,73.3,49.4,30.15,WNW,282,2.0,2.0,43,0.00,,,0.00,Wunderground v.1.15,2013-07-09 20:25:00,
2013-07-09 13:35:00,73.9,49.4,30.15,West,274,2.0,4.0,42,0.00,,,0.00,Wunderground v.1.15,2013-07-09 20:35:00,
2013-07-09 13:45:00,74.2,49.6,30.15,NW,315,2.0,5.0,42,0.00,,,0.00,Wunderground v.1.15,2013-07-09 20:45:00,
2013-07-09 13:55:00,74.9,49.6,30.15,WNW,292,1.0,6.0,41,0.00,,,0.00,Wunderground v.1.15,2013-07-09 20:55:00,
2013-07-09 14:00:00,75.1,49.8,30.14,West,263,1.0,1.0,41,0.00,,,0.00,Wunderground v.1.15,2013-07-09 21:00:00,
2013-07-09 14:05:00,75.1,48.4,30.14,WSW,241,1.0,1.0,39,0.00,,,0.00,Wunderground v.1.15,2013-07-09 21:05:00,
2013-07-09 14:15:00,76.0,49.9,30.14,North,0,2.0,2.0,40,0.00,,,0.00,Wunderground v.1.15,2013-07-09 21:15:00,
2013-07-09 14:25:00,76.7,48.5,30.14,WNW,295,2.0,5.0,37,0.00,,,0.00,Wunderground v.1.15,2013-07-09 21:25:00,
2013-07-09 14:30:00,76.3,49.5,30.13,WNW,289,1.0,1.0,39,0.00,,,0.00,Wunderground v.1.15,2013-07-09 21:30:00,
2013-07-09 14:40:00,75.3,50.0,30.13,NNW,344,2.0,5.0,41,0.00,,,0.00,Wunderground v.1.15,2013-07-09 21:40:00,
2013-07-09 14:45:00,75.3,51.3,30.13,North,353,3.0,5.0,43,0.00,,,0.00,Wunderground v.1.15,2013-07-09 21:45:00,
2013-07-09 14:55:00,75.3,49.3,30.13,NNE,17,2.0,3.0,40,0.00,,,0.00,Wunderground v.1.15,2013-07-09 21:55:00,
2013-07-09 15:00:00,75.4,49.4,30.13,North,353,2.0,2.0,40,0.00,,,0.00,Wunderground v.1.15,2013-07-09 22:00:00,
2013-07-09 15:05:00,75.6,48.2,30.13,West,268,1.0,3.0,38,0.00,,,0.00,Wunderground v.1.15,2013-07-09 22:05:00,
2013-07-09 15:15:00,76.0,48.6,30.13,WNW,291,2.0,3.0,38,0.00,,,0.00,Wunderground v.1.15,2013-07-09 22:15:00,
2013-07-09 15:25:00,76.3,48.1,30.13,West,270,1.0,1.0,37,0.00,,,0.00,Wunderground v.1.15,2013-07-09 22:25:00,
2013-07-09 15:35:00,75.8,48.4,30.12,WNW,288,2.0,2.0,38,0.00,,,0.00,Wunderground v.1.15,2013-07-09 22:35:00,
2013-07-09 15:45:00,76.8,47.1,30.12,West,260,1.0,2.0,35,0.00,,,0.00,Wunderground v.1.15,2013-07-09 22:45:00,
2013-07-09 15:55:00,76.5,47.6,30.12,West,278,3.0,3.0,36,0.00,,,0.00,Wunderground v.1.15,2013-07-09 22:55:00,
2013-07-09 16:00:00,76.5,46.8,30.12,WNW,284,2.0,2.0,35,0.00,,,0.00,Wunderground v.1.15,2013-07-09 23:00:00,
2013-07-09 16:05:00,76.8,47.1,30.12,WSW,258,2.0,2.0,35,0.00,,,0.00,Wunderground v.1.15,2013-07-09 23:05:00,
2013-07-09 16:15:00,75.8,46.9,30.12,NW,326,2.0,6.0,36,0.00,,,0.00,Wunderground v.1.15,2013-07-09 23:15:00,
2013-07-09 16:20:00,74.9,46.1,30.12,West,274,2.0,9.0,36,0.00,,,0.00,Wunderground v.1.15,2013-07-09 23:20:00,
2013-07-09 16:30:00,74.7,47.4,30.12,WSW,243,2.0,7.0,38,0.00,,,0.00,Wunderground v.1.15,2013-07-09 23:30:00,
2013-07-09 16:40:00,74.7,46.7,30.12,SSW,205,1.0,1.0,37,0.00,,,0.00,Wunderground v.1.15,2013-07-09 23:40:00,
2013-07-09 16:50:00,73.5,46.3,30.12,West,274,2.0,2.0,38,0.00,,,0.00,Wunderground v.1.15,2013-07-09 23:50:00,
2013-07-09 16:55:00,73.0,46.6,30.12,WNW,284,3.0,3.0,39,0.00,,,0.00,Wunderground v.1.15,2013-07-09 23:55:00,
2013-07-09 17:00:00,72.7,46.3,30.12,WSW,246,3.0,3.0,39,0.00,,,0.00,Wunderground v.1.15,2013-07-10 00:00:00,
2013-07-09 17:05:00,72.3,46.6,30.12,West,280,3.0,3.0,40,0.00,,,0.00,Wunderground v.1.15,2013-07-10 00:05:00,
2013-07-09 17:15:00,71.5,46.6,30.12,NNW,344,4.0,11.0,41,0.00,,,0.00,Wunderground v.1.15,2013-07-10 00:15:00,
2013-07-09 17:25:00,71.6,47.3,30.12,WSW,257,4.0,5.0,42,0.00,,,0.00,Wunderground v.1.15,2013-07-10 00:25:00,
2013-07-09 17:35:00,70.9,47.3,30.11,WNW,302,3.0,3.0,43,0.00,,,0.00,Wunderground v.1.15,2013-07-10 00:35:00,
2013-07-09 17:45:00,71.1,46.8,30.11,WSW,257,1.0,3.0,42,0.00,,,0.00,Wunderground v.1.15,2013-07-10 00:45:00,
2013-07-09 17:50:00,71.1,46.2,30.11,WNW,291,2.0,2.0,41,0.00,,,0.00,Wunderground v.1.15,2013-07-10 00:50:00,
2013-07-09 18:00:00,71.1,42.0,30.10,West,263,2.0,2.0,35,0.00,,,0.00,Wunderground v.1.15,2013-07-10 01:00:00,
2013-07-09 18:05:00,70.8,41.0,30.10,NW,312,2.0,2.0,34,0.00,,,0.00,Wunderground v.1.15,2013-07-10 01:05:00,
2013-07-09 18:15:00,70.8,41.8,30.10,SW,229,2.0,5.0,35,0.00,,,0.00,Wunderground v.1.15,2013-07-10 01:15:00,
2013-07-09 18:25:00,70.3,42.1,30.10,NW,322,2.0,2.0,36,0.00,,,0.00,Wunderground v.1.15,2013-07-10 01:25:00,
2013-07-09 18:35:00,69.8,41.6,30.10,SW,217,1.0,3.0,36,0.00,,,0.00,Wunderground v.1.15,2013-07-10 01:35:00,
2013-07-09 18:45:00,68.8,42.8,30.10,NW,312,3.0,3.0,39,0.00,,,0.00,Wunderground v.1.15,2013-07-10 01:45:00,
2013-07-09 18:55:00,68.3,42.4,30.10,NW,305,3.0,6.0,39,0.00,,,0.00,Wunderground v.1.15,2013-07-10 01:55:00,
2013-07-09 19:00:00,68.1,42.9,30.10,SSW,202,3.0,8.0,40,0.00,,,0.00,Wunderground v.1.15,2013-07-10 02:00:00,
2013-07-09 19:05:00,67.8,41.9,30.10,West,278,4.0,8.0,39,0.00,,,0.00,Wunderground v.1.15,2013-07-10 02:05:00,
2013-07-09 19:15:00,67.8,41.9,30.10,SW,234,3.0,8.0,39,0.00,,,0.00,Wunderground v.1.15,2013-07-10 02:15:00,
2013-07-09 19:25:00,68.4,42.5,30.10,WNW,295,1.0,2.0,39,0.00,,,0.00,Wunderground v.1.15,2013-07-10 02:25:00,
2013-07-09 19:30:00,68.1,42.9,30.10,West,281,1.0,1.0,40,0.00,,,0.00,Wunderground v.1.15,2013-07-10 02:30:00,
2013-07-09 19:40:00,67.3,43.4,30.10,West,280,2.0,8.0,42,0.00,,,0.00,Wunderground v.1.15,2013-07-10 02:40:00,
2013-07-09 19:50:00,66.9,44.3,30.10,WSW,256,1.0,1.0,44,0.00,,,0.00,Wunderground v.1.15,2013-07-10 02:50:00,
2013-07-09 20:00:00,66.9,44.9,30.10,NNW,328,0.0,1.0,45,0.00,,,0.00,Wunderground v.1.15,2013-07-10 03:00:00,
2013-07-09 20:10:00,66.8,44.2,30.10,NW,316,0.0,2.0,44,0.00,,,0.00,Wunderground v.1.15,2013-07-10 03:10:00,
2013-07-09 20:20:00,66.0,44.6,30.09,NW,316,0.0,0.0,46,0.00,,,0.00,Wunderground v.1.15,2013-07-10 03:20:00,
2013-07-09 20:30:00,64.7,45.1,30.10,NNW,330,0.0,0.0,49,0.00,,,0.00,Wunderground v.1.15,2013-07-10 03:30:00,
2013-07-09 20:40:00,64.0,44.4,30.10,WNW,291,0.0,0.0,49,0.00,,,0.00,Wunderground v.1.15,2013-07-10 03:40:00,
2013-07-09 20:45:00,63.5,44.0,30.10,WSW,244,1.0,2.0,49,0.00,,,0.00,Wunderground v.1.15,2013-07-10 03:45:00,
2013-07-09 20:50:00,63.2,44.2,30.10,West,260,1.0,1.0,50,0.00,,,0.00,Wunderground v.1.15,2013-07-10 03:50:00,
2013-07-09 21:00:00,62.6,43.7,30.10,North,357,3.0,3.0,50,0.00,,,0.00,Wunderground v.1.15,2013-07-10 04:00:00,
2013-07-09 21:05:00,62.3,43.9,30.10,NNW,342,1.0,3.0,51,0.00,,,0.00,Wunderground v.1.15,2013-07-10 04:05:00,
2013-07-09 21:10:00,62.0,44.2,30.10,West,277,0.0,0.0,52,0.00,,,0.00,Wunderground v.1.15,2013-07-10 04:10:00,
2013-07-09 21:15:00,61.5,44.7,30.10,North,359,1.0,1.0,54,0.00,,,0.00,Wunderground v.1.15,2013-07-10 04:15:00,
2013-07-09 21:25:00,60.9,44.6,30.10,West,274,0.0,1.0,55,0.00,,,0.00,Wunderground v.1.15,2013-07-10 04:25:00,
2013-07-09 21:35:00,60.4,44.6,30.11,North,359,0.0,0.0,56,0.00,,,0.00,Wunderground v.1.15,2013-07-10 04:35:00,
2013-07-09 21:40:00,60.2,44.4,30.11,NNW,332,0.0,0.0,56,0.00,,,0.00,Wunderground v.1.15,2013-07-10 04:40:00,
2013-07-09 21:50:00,60.2,44.4,30.11,North,349,0.0,0.0,56,0.00,,,0.00,Wunderground v.1.15,2013-07-10 04:50:00,
2013-07-09 22:00:00,60.1,44.3,30.11,NW,322,0.0,0.0,56,0.00,,,0.00,Wunderground v.1.15,2013-07-10 05:00:00,
2013-07-09 22:05:00,59.8,44.5,30.11,NNE,21,0.0,0.0,57,0.00,,,0.00,Wunderground v.1.15,2013-07-10 05:05:00,
2013-07-09 22:15:00,59.5,44.7,30.11,NNE,21,0.0,0.0,58,0.00,,,0.00,Wunderground v.1.15,2013-07-10 05:15:00,
2013-07-09 22:25:00,59.3,45.0,30.11,NNE,21,0.0,0.0,59,0.00,,,0.00,Wunderground v.1.15,2013-07-10 05:25:00,
2013-07-09 22:35:00,59.2,44.9,30.11,North,3,0.0,0.0,59,0.00,,,0.00,Wunderground v.1.15,2013-07-10 05:35:00,
2013-07-09 22:45:00,59.3,45.0,30.11,WNW,301,0.0,0.0,59,0.00,,,0.00,Wunderground v.1.15,2013-07-10 05:45:00,
2013-07-09 22:55:00,59.8,45.0,30.11,NNW,340,1.0,1.0,58,0.00,,,0.00,Wunderground v.1.15,2013-07-10 05:55:00,
2013-07-09 23:00:00,59.8,44.5,30.11,North,0,1.0,1.0,57,0.00,,,0.00,Wunderground v.1.15,2013-07-10 06:00:00,
2013-07-09 23:05:00,59.8,45.0,30.11,NNE,24,0.0,1.0,58,0.00,,,0.00,Wunderground v.1.15,2013-07-10 06:05:00,
2013-07-09 23:15:00,59.6,45.2,30.11,NNE,24,0.0,0.0,59,0.00,,,0.00,Wunderground v.1.15,2013-07-10 06:15:00,
2013-07-09 23:20:00,59.5,45.2,30.11,North,3,0.0,0.0,59,0.00,,,0.00,Wunderground v.1.15,2013-07-10 06:20:00,
2013-07-09 23:30:00,59.5,44.7,30.12,WNW,292,0.0,0.0,58,0.00,,,0.00,Wunderground v.1.15,2013-07-10 06:30:00,
2013-07-09 23:40:00,59.0,44.7,30.12,NNE,32,0.0,0.0,59,0.00,,,0.00,Wunderground v.1.15,2013-07-10 06:40:00,
2013-07-09 23:50:00,58.7,45.3,30.12,NE,37,0.0,0.0,61,0.00,,,0.00,Wunderground v.1.15,2013-07-10 06:50:00,